This is the latest recevied weather packets stored in our database for station/object K1AWR. If no packets are shown the sender has not sent any weather packets the latest 10 day(s).
| Time | Temp. | Humidity | Pressure | Rain* | Wind** | Luminosity | Snow |
|---|---|---|---|---|---|---|---|
| 1777692014 | 11.11° C | 71% | 1012.2 hPa | 0 mm | - | 0 W/m² | - |
| 1777691712 | 11.11° C | 68% | 1012.3 hPa | 0 mm | - | 0 W/m² | - |
| 1777691410 | 11.67° C | 68% | 1012.3 hPa | 0 mm | - | 0 W/m² | - |
| 1777691108 | 11.67° C | 64% | 1012.2 hPa | 0 mm | - | 0 W/m² | - |
| 1777690806 | 11.67° C | 64% | 1012.3 hPa | 0 mm | - | 0 W/m² | - |
| 1777690503 | 11.67° C | 64% | 1012.3 hPa | 0 mm | - | 0 W/m² | - |
| 1777690201 | 11.67° C | 64% | 1012.2 hPa | 0 mm | - | 0 W/m² | - |
| 1777689898 | 11.67° C | 65% | 1012.2 hPa | 0 mm | - | 0 W/m² | - |
| 1777689596 | 12.22° C | 62% | 1012.3 hPa | 0 mm | - | 0 W/m² | - |
| 1777689293 | 12.22° C | 62% | 1012.3 hPa | 0 mm | - | 0 W/m² | - |
| 1777688991 | 12.22° C | 61% | 1012.2 hPa | 0 mm | - | 0 W/m² | - |
| 1777688687 | 12.22° C | 61% | 1012.2 hPa | 0 mm | - | 0 W/m² | - |
| 1777688384 | 12.22° C | 60% | 1012.2 hPa | 0 mm | - | 0 W/m² | - |
| 1777688082 | 12.22° C | 61% | 1012.2 hPa | 0 mm | - | 0 W/m² | - |
| 1777687779 | 12.78° C | 60% | 1012.3 hPa | 0 mm | - | 0 W/m² | - |
| 1777687477 | 12.78° C | 58% | 1012.4 hPa | 0 mm | - | 0 W/m² | - |
| 1777687173 | 12.78° C | 58% | 1012.3 hPa | 0 mm | - | 0 W/m² | - |
| 1777686871 | 12.78° C | 57% | 1012.2 hPa | 0 mm | - | 0 W/m² | - |
| 1777686567 | 13.33° C | 56% | 1012.3 hPa | 0 mm | - | 0 W/m² | - |
| 1777686264 | 13.33° C | 55% | 1012.1 hPa | 0 mm | - | 0 W/m² | - |
| 1777685961 | 13.33° C | 52% | 1012 hPa | 0 mm | - | 0 W/m² | - |
| 1777685656 | 13.33° C | 51% | 1012.1 hPa | 0 mm | - | 0 W/m² | - |
| 1777685353 | 13.33° C | 52% | 1012 hPa | 0 mm | - | 0 W/m² | - |
| 1777685051 | 13.89° C | 49% | 1011.8 hPa | 0 mm | - | 0 W/m² | - |
| 1777684748 | 13.89° C | 47% | 1011.9 hPa | 0 mm | - | 0 W/m² | - |
* Rain latest hour (hover to see other rain measurements)
** Current wind speed in m/s (hover to see current wind gust speed)